RH
20 21 25 29 33 30 26 22 11 16 17 13 17 12 12 16 19 14 11 15 11 26 34 39 43 37 45 43 41 53 64 57 51 48 46 78 99 92 92 95 95 97 96 95 97 87 78 69 59 57 55 53 51 50 46 44 43 41 41 43 47 51 58 72 83 83 89 90 84 87 92 90 88 88 86 82 79 79 79 81 86 91 94 95 95 93 94 94 92 93 91 93 94 92 92 92 93
22 29 35 35 32 27 28 24 13 20 18 13 17 13 12 18 22 14 12 14 14 38 55 54 51 52 58 53 49 53 66 74 72 73 81 96 94 91 96 96 97 98 94 93 96 93 91 77 61 59 56 53 50 48 48 48 46 44 51 58 63 72 81 86 84 82 89 85 83 90 91 90 88 88 86 82 80 78 77 79 85 91 94 96 95 91 94 94 94 93 91 92 93 94 95 94 89
24 33 37 33 29 28 29 20 15 21 16 11 12 13 14 15 15 13 13 13 12 25 43 53 52 55 54 48 52 49 60 77 79 85 92 88 83 93 98 97 99 97 94 92 95 96 93 80 64 60 57 53 50 47 50 54 55 57 73 83 85 91 93 91 87 88 89 84 88 93 90 90 88 87 86 82 80 77 77 80 84 88 92 95 93 91 94 93 93 93 90 87 88 90 89 88 85
23 32 36 31 26 26 25 17 19 19 12 13 9 11 15 12 12 12 13 13 12 15 35 51 50 57 54 49 57 57 66 77 77 82 88 83 81 95 99 98 98 95 96 94 95 96 92 80 67 63 57 54 51 51 58 62 66 73 83 89 92 94 94 94 91 93 93 88 91 94 92 92 89 87 85 81 78 77 78 82 85 86 89 93 93 94 96 95 94 89 81 75 74 75 74 75 76
22 30 36 32 25 24 25 24 28 18 9 13 8 9 15 14 14 14 13 14 12 14 38 52 48 54 59 64 66 61 70 77 77 79 83 89 91 97 99 97 96 94 96 96 95 96 94 80 69 67 58 54 53 61 77 77 74 80 85 87 95 97 96 98 93 92 94 89 90 93 92 92 91 87 84 81 78 78 79 83 85 86 90 90 91 92 92 94 89 76 68 66 66 65 66 66 66
23 30 33 30 27 25 25 26 28 20 13 14 8 10 16 16 15 16 16 15 18 22 30 43 50 54 65 74 71 71 79 77 76 80 83 92 97 97 98 96 96 95 93 95 96 99 97 82 71 69 62 60 62 73 89 82 75 84 86 85 95 98 94 95 93 92 93 91 93 92 91 91 91 88 86 84 81 81 83 87 88 90 93 90 91 91 90 91 78 64 63 63 62 62 63 62 63
25 30 30 25 25 25 25 27 25 22 18 15 12 12 16 18 17 18 18 15 25 40 42 45 52 53 65 72 70 78 86 82 76 83 88 92 98 97 97 95 95 95 93 93 96 100 96 83 75 72 67 68 71 82 85 69 76 90 86 85 91 96 91 92 96 95 94 93 94 92 92 92 91 91 90 88 86 86 86 89 90 92 95 91 92 93 91 86 70 61 62 62 62 61 62 63 64
27 29 30 23 24 28 29 30 26 24 21 19 19 17 18 19 19 21 20 16 16 33 51 57 53 50 65 72 72 80 90 92 84 89 94 94 98 96 95 94 95 95 95 94 94 98 93 86 81 73 70 71 72 86 83 65 81 95 88 89 93 96 91 92 97 95 95 94 92 91 91 91 91 91 91 89 85 85 87 90 90 91 93 91 91 93 90 81 68 62 61 62 64 63 62 63 65
28 25 28 23 23 27 28 28 24 23 23 22 20 20 21 20 22 22 18 16 11 21 47 58 49 47 68 80 78 82 92 96 90 94 95 94 97 95 94 93 95 95 96 95 93 96 94 89 82 75 75 73 71 84 85 71 81 90 85 90 96 96 90 91 96 94 95 94 92 91 91 91 90 87 87 89 86 85 87 88 89 89 90 91 92 90 84 77 69 63 60 63 65 63 61 62 65
27 24 26 22 21 23 23 23 20 20 20 20 18 17 18 18 18 19 16 14 18 30 54 63 56 59 72 82 81 83 94 97 93 96 95 95 96 95 96 94 96 95 95 95 94 94 93 90 84 84 81 74 75 78 79 77 79 84 86 89 96 96 91 90 94 95 92 92 93 91 92 95 89 81 81 84 85 86 86 84 85 88 89 90 89 83 77 73 68 61 59 63 65 63 61 62 66
26 25 23 21 22 19 19 18 17 17 17 18 18 16 16 16 15 18 15 16 34 49 61 64 66 77 77 80 85 89 97 98 95 97 97 96 97 97 98 96 95 94 94 94 94 93 93 91 88 89 83 76 83 78 74 81 78 80 88 92 95 95 95 92 93 96 90 89 94 92 94 95 85 78 83 85 83 83 82 80 77 78 84 87 82 75 73 70 65 58 58 63 65 64 62 64 67
25 27 21 21 23 18 21 20 18 18 18 18 16 13 12 15 15 16 12 21 49 58 58 56 60 71 73 79 87 91 97 99 99 99 98 96 98 98 97 97 95 94 94 94 92 91 91 89 85 88 85 80 86 81 76 82 78 77 86 92 95 93 94 93 92 96 94 90 93 96 93 85 81 82 87 86 83 82 78 75 71 70 73 77 73 69 69 67 63 56 58 64 65 65 64 65 69
25 28 20 19 23 22 24 21 21 22 19 17 14 12 11 13 10 12 23 42 56 53 51 54 58 65 73 87 90 89 95 99 101 99 98 97 99 98 97 97 94 94 94 95 92 88 88 86 84 86 86 84 86 86 82 84 82 79 84 89 91 89 87 89 92 98 99 94 93 96 88 81 87 92 86 77 79 80 76 69 64 64 63 64 65 65 65 63 59 55 60 65 66 66 66 67 69
27 26 20 20 26 26 23 18 18 20 16 14 13 12 10 11 13 22 41 55 55 52 56 59 62 64 71 86 89 88 94 100 101 99 99 97 99 99 98 97 93 92 93 96 94 88 89 85 86 87 86 85 84 86 84 85 87 83 86 88 86 83 82 83 89 96 99 97 94 88 80 85 94 95 83 72 73 77 75 68 62 63 58 57 59 60 59 58 56 56 64 66 65 66 66 69 69
28 24 24 24 27 24 20 18 16 18 15 12 12 10 11 15 23 36 43 50 59 62 60 58 58 55 56 67 76 84 95 101 100 99 99 97 100 98 96 96 91 90 89 92 93 93 93 86 88 91 89 87 83 84 81 81 86 87 87 87 82 78 79 80 83 87 91 95 93 81 75 85 91 90 83 73 72 73 73 72 72 70 57 52 54 54 55 56 57 60 65 66 65 66 67 70 70
27 22 24 26 25 22 20 21 18 18 15 12 11 9 13 14 24 44 48 48 61 65 61 63 64 58 56 61 67 81 97 100 98 98 96 96 98 94 91 91 89 90 89 88 91 93 92 88 91 95 94 90 83 83 82 78 80 83 83 82 81 79 77 75 77 78 80 86 85 78 78 84 86 87 84 77 75 73 72 77 84 77 56 48 50 51 56 60 62 64 65 66 65 66 68 70 70
23 22 26 26 23 21 19 20 18 16 12 10 11 10 10 12 31 55 57 55 63 70 73 74 74 70 68 71 75 88 98 97 96 95 93 91 91 88 88 90 91 93 94 93 91 90 89 88 94 97 96 94 88 86 87 82 79 80 80 80 78 80 79 71 75 80 82 85 79 75 78 82 82 82 83 81 78 71 70 78 86 82 58 45 48 52 61 67 66 66 64 65 66 67 70 71 71
22 27 28 25 22 19 17 17 14 11 11 10 10 13 9 15 45 56 51 62 70 73 77 76 79 80 76 80 86 92 94 93 92 89 89 87 84 84 85 89 93 93 95 98 95 91 91 91 94 96 96 96 95 94 91 85 82 82 82 81 78 80 80 74 78 85 88 89 83 76 76 81 84 83 83 82 80 73 71 79 86 86 66 47 51 59 67 71 68 66 64 64 67 68 71 73 72
24 28 27 23 21 18 16 15 13 11 12 11 10 13 8 12 36 39 44 65 62 62 74 77 86 92 87 86 89 91 91 92 89 85 85 84 81 82 83 87 91 92 94 97 96 93 91 92 94 94 95 95 94 96 95 88 85 84 83 83 81 82 81 78 81 87 88 90 88 82 79 83 84 84 85 82 80 73 71 79 88 88 73 56 59 67 71 74 71 67 64 64 68 71 73 76 78
25 24 25 22 20 18 17 15 14 13 11 12 11 12 10 8 12 18 42 61 52 53 66 69 85 99 94 88 88 89 90 89 86 85 85 83 80 80 82 85 89 92 92 93 93 92 90 89 94 95 95 96 94 96 98 96 92 89 89 86 83 84 83 80 82 88 88 89 90 86 83 83 82 84 84 81 79 75 73 80 88 88 78 67 67 73 76 76 75 72 67 64 68 73 73 75 78
24 23 24 19 17 17 16 15 14 13 12 13 12 10 10 8 12 29 43 44 41 47 52 58 79 98 95 87 86 87 88 87 87 87 86 82 80 80 82 84 88 90 90 89 90 92 90 88 94 98 97 98 97 98 99 100 98 95 96 95 91 90 89 85 84 87 89 89 90 88 84 81 80 83 83 83 81 79 80 85 90 88 85 80 76 82 85 80 78 76 71 68 68 71 71 71 72
22 23 23 19 17 17 14 13 13 13 13 12 12 11 9 7 18 43 42 22 22 31 42 59 76 89 90 86 86 87 88 88 88 88 85 82 81 83 86 90 92 92 92 91 90 92 91 91 95 95 95 98 99 100 99 98 97 95 96 98 95 94 95 93 90 89 89 89 89 89 86 81 80 82 83 84 84 82 84 89 91 90 89 85 84 90 88 80 80 79 74 72 70 70 70 71 71
20 20 20 19 17 18 15 13 13 13 13 12 12 10 10 8 10 33 33 11 11 20 39 65 76 82 84 83 86 88 90 88 88 88 84 84 85 84 87 94 96 94 94 92 92 93 93 94 93 92 93 96 97 97 97 96 96 94 94 95 93 94 96 91 90 92 91 91 91 89 86 83 82 82 84 83 84 86 86 88 90 90 90 88 88 86 82 79 80 80 76 73 72 72 72 73 73
21 20 19 19 16 17 15 13 14 13 14 12 12 10 11 10 6 19 17 7 27 44 56 71 74 79 82 84 87 87 90 89 88 88 85 86 88 86 87 93 96 94 92 92 92 91 91 93 91 92 93 94 95 94 94 94 96 96 94 96 95 94 92 85 90 95 92 92 92 89 87 85 82 82 85 83 83 87 89 92 90 85 85 91 90 80 76 79 79 79 76 75 75 75 74 74 74
23 23 21 19 16 16 14 14 13 12 13 11 12 11 10 10 7 13 8 21 61 74 73 75 74 81 84 84 87 84 87 89 87 89 88 87 88 91 92 95 99 96 91 95 95 89 88 90 91 94 92 93 94 93 93 94 95 95 94 96 95 92 89 88 94 96 92 93 94 92 90 86 83 83 85 86 82 83 89 94 88 79 77 85 88 80 76 77 78 79 78 76 77 77 76 75 74
22 21 20 18 16 16 13 13 11 11 11 10 11 9 10 10 9 9 8 42 82 79 75 77 76 86 87 85 86 84 86 88 87 90 90 87 89 95 96 93 98 98 94 97 96 90 89 89 92 91 88 92 95 95 94 94 95 93 92 94 96 94 91 94 94 90 89 94 95 93 92 87 84 83 84 89 86 82 88 89 85 80 76 77 80 81 78 76 77 79 81 81 81 81 79 77 75
19 19 18 18 17 15 13 11 10 11 10 10 10 8 10 9 9 8 16 57 84 78 81 81 78 87 89 87 87 86 86 86 88 91 92 89 88 95 97 91 95 99 97 98 95 90 89 92 96 90 88 94 95 95 94 94 94 93 93 93 96 94 93 97 91 88 91 93 94 94 92 86 83 83 84 90 91 88 92 91 89 84 78 75 75 77 79 78 77 80 85 84 85 87 83 81 79
16 16 15 16 15 13 12 10 10 10 9 10 9 8 11 8 9 9 23 64 83 81 88 83 80 85 87 88 87 87 85 86 89 90 94 92 85 91 97 96 98 96 88 90 95 93 91 94 99 93 91 96 95 94 94 94 95 94 95 95 96 92 93 98 88 89 96 95 96 92 89 84 81 85 85 87 91 95 97 95 93 84 78 79 75 74 76 77 77 81 88 86 82 85 86 85 84
14 13 12 13 11 11 10 10 11 10 8 10 9 8 10 8 10 7 18 61 82 82 89 85 83 85 85 88 87 87 84 86 90 88 93 91 86 91 95 96 99 90 77 81 91 95 95 94 95 94 91 93 95 96 95 95 96 95 96 96 97 92 93 99 91 92 99 97 96 90 87 84 80 85 85 83 88 96 98 97 95 83 78 82 78 75 75 75 78 81 86 85 77 76 82 87 87
13 11 12 13 12 11 10 11 11 10 10 11 9 9 10 8 11 8 16 61 85 82 87 85 84 86 84 86 88 90 87 87 90 88 91 91 88 92 95 98 96 85 78 85 94 95 94 93 93 94 93 92 95 97 97 96 96 97 98 97 96 92 93 99 97 97 98 98 95 91 92 87 81 85 83 80 85 92 97 97 93 84 81 83 80 78 77 76 77 79 80 79 73 73 82 90 90
13 11 13 14 15 13 9 13 12 8 11 11 9 9 11 7 10 9 14 57 81 75 84 85 84 87 85 88 89 90 90 88 89 89 92 93 91 90 94 100 97 91 86 85 95 100 97 96 96 97 97 96 97 99 98 97 97 98 98 98 95 91 93 99 100 99 98 99 96 91 93 91 87 87 83 80 83 89 96 95 87 84 85 85 83 80 80 79 77 77 76 74 73 80 93 97 97
15 14 17 15 15 13 9 15 14 9 10 10 9 9 11 8 10 15 22 56 75 69 78 85 84 85 84 89 90 91 92 90 90 90 94 96 95 94 95 100 98 96 90 82 89 100 100 98 98 98 98 98 99 99 98 97 99 99 98 100 97 91 93 98 98 99 98 98 98 94 94 96 92 88 86 83 84 86 91 91 86 86 87 87 86 82 82 82 80 78 75 73 72 83 99 100 99
17 16 20 17 13 12 9 12 12 11 10 8 10 9 10 9 12 23 32 53 70 66 70 81 87 87 85 90 93 94 95 93 90 89 93 96 95 95 96 99 99 95 94 90 91 96 99 100 98 97 97 99 100 99 99 99 100 101 99 101 99 93 94 98 96 97 100 99 99 98 95 96 92 86 85 86 87 87 85 83 82 85 86 86 87 85 82 81 81 78 77 78 71 76 95 99 98
19 18 21 20 16 14 11 10 11 11 10 8 11 9 11 20 28 39 46 50 59 60 59 65 75 84 88 92 95 94 94 95 91 88 92 94 93 93 91 95 99 98 98 96 94 95 97 99 99 98 97 98 100 100 100 100 100 100 100 100 100 97 96 98 91 86 95 101 99 97 94 94 91 83 82 85 87 87 83 79 78 82 84 84 84 85 83 80 80 77 79 85 77 76 92 99 98
19 19 19 20 18 16 13 12 12 11 10 9 10 10 20 41 49 56 63 61 61 63 60 57 61 74 85 91 95 93 93 93 88 88 91 92 91 92 91 94 99 100 100 98 98 99 99 100 100 100 99 99 100 100 100 100 100 100 100 100 100 99 96 98 93 82 88 100 97 93 94 94 89 81 78 82 85 85 83 80 78 80 84 84 84 85 88 86 85 84 86 90 87 88 97 99 100
17 18 18 17 15 15 14 13 13 13 13 11 14 25 43 60 63 65 71 72 71 71 70 64 62 70 80 86 91 90 90 88 86 88 90 90 90 91 93 96 100 100 100 99 99 100 100 100 100 100 100 99 100 100 100 100 100 100 100 99 100 100 94 93 96 89 88 98 97 93 95 92 86 82 79 80 82 82 81 80 78 80 85 87 87 88 91 91 92 94 94 95 96 98 101 100 100
17 18 17 16 14 13 14 12 13 14 14 21 34 49 62 69 70 70 71 72 76 76 76 73 68 70 76 80 83 86 89 90 91 93 92 93 91 91 94 97 100 101 101 101 101 101 101 100 100 100 100 100 100 100 100 100 101 100 98 99 99 97 93 88 91 94 97 100 99 96 94 90 85 82 84 84 82 79 79 80 79 81 86 89 89 89 91 93 94 97 98 99 100 100 101 100 100
17 16 15 16 14 12 12 13 15 14 18 34 48 55 62 67 70 71 71 74 80 81 82 81 75 70 72 76 81 88 94 95 97 96 97 98 95 95 98 99 99 97 95 93 93 95 95 93 93 90 90 92 94 96 98 97 97 100 98 97 96 92 93 91 88 93 98 98 99 98 93 89 84 82 87 87 83 81 79 80 81 82 86 90 91 91 93 96 96 98 100 100 100 100 100 100 101
20 17 16 16 14 14 15 17 20 16 21 39 51 57 62 64 67 70 72 76 77 76 78 81 81 77 74 76 83 91 97 98 98 97 99 101 99 99 97 93 91 85 78 74 77 82 80 78 77 72 70 74 81 91 97 93 90 96 99 96 94 90 91 92 90 91 93 95 99 101 97 93 88 86 89 89 88 89 85 84 83 81 83 87 93 96 97 97 98 99 99 99 99 100 100 100 101
23 19 16 16 16 15 14 18 24 21 24 40 49 56 62 62 64 68 69 72 71 68 68 72 78 81 80 79 83 91 98 100 100 98 98 99 99 98 95 92 92 87 80 75 76 78 74 73 71 65 63 68 79 91 98 97 93 97 98 95 95 92 91 93 93 91 91 96 99 99 100 98 95 93 95 94 94 96 92 87 81 78 81 85 93 99 99 99 98 99 100 99 99 99 100 100 101
27 24 16 15 17 15 15 19 25 24 27 37 38 45 59 64 67 70 65 65 67 64 64 68 72 77 80 81 84 89 95 96 97 96 95 96 96 96 95 96 97 93 87 84 81 77 72 71 68 65 67 76 87 94 98 100 99 100 97 96 96 93 93 94 95 93 91 96 100 99 100 100 99 99 99 98 98 100 98 91 83 80 83 87 94 98 98 100 97 96 99 98 97 98 99 100 100
27 27 18 16 15 14 17 20 23 22 26 30 25 33 55 63 69 76 68 63 68 66 69 73 73 74 77 83 87 87 89 91 92 93 93 93 96 97 97 96 95 91 87 85 81 74 70 68 65 64 68 78 88 93 98 100 100 100 97 96 96 94 94 92 93 94 92 95 99 99 98 98 100 100 100 100 100 100 100 96 91 87 87 89 96 98 97 96 88 90 98 98 98 98 97 97 98
23 24 20 17 15 16 18 17 18 19 24 29 25 29 50 59 67 78 71 66 72 71 74 80 79 79 78 81 86 87 89 91 90 91 91 93 96 96 96 96 96 94 92 90 86 82 82 83 80 76 74 82 90 94 99 101 99 101 98 96 96 95 95 92 91 92 92 95 98 98 98 98 99 100 100 100 100 101 101 100 98 95 90 88 93 97 98 95 85 88 98 98 98 99 96 93 94
21 24 21 17 15 16 17 16 17 22 25 28 26 27 44 58 66 75 70 67 77 80 81 84 85 88 86 85 88 90 92 92 91 91 91 94 96 96 96 97 98 98 98 98 96 95 97 98 96 93 91 94 97 98 100 101 100 100 99 96 97 97 96 94 93 94 96 96 96 97 99 99 99 99 99 99 100 99 94 94 98 100 96 92 94 97 99 99 92 93 97 95 97 100 97 91 90
21 25 21 17 17 17 17 16 18 28 26 21 24 26 40 60 68 71 69 67 79 87 89 89 90 91 89 90 91 91 91 91 90 91 92 93 95 96 97 98 100 100 100 100 98 97 98 99 98 98 99 99 100 100 100 100 100 100 99 95 95 97 98 96 95 96 95 93 93 96 100 100 99 98 98 98 98 94 87 85 88 93 96 97 99 98 98 100 98 98 98 97 100 100 98 94 91
21 24 23 22 24 24 24 20 20 30 26 19 29 32 36 59 71 70 73 76 82 90 93 92 91 90 89 90 90 89 88 87 87 88 90 92 93 94 96 98 100 100 100 100 98 95 95 98 98 95 96 99 100 99 99 100 99 98 98 97 95 94 95 97 97 98 96 92 94 98 100 96 95 98 99 99 99 97 91 85 83 87 90 92 97 98 98 100 99 100 99 98 101 100 99 98 94
21 21 21 21 26 29 29 29 25 24 22 24 41 44 32 47 71 80 83 83 79 82 93 93 88 87 89 90 88 86 86 85 84 84 85 88 90 92 94 96 99 100 100 100 99 97 96 98 98 95 94 97 97 96 96 97 98 98 97 97 96 92 94 97 97 98 98 96 98 101 97 88 90 97 97 96 98 100 97 90 87 90 88 87 94 99 100 100 100 100 97 96 100 100 99 100 97
20 19 21 21 25 27 26 28 27 24 23 30 46 46 34 47 78 90 83 77 74 80 92 96 92 89 89 89 89 87 86 86 84 83 85 86 87 90 93 94 97 99 100 100 100 99 99 99 99 98 95 93 91 91 91 93 96 97 97 97 98 95 96 99 98 97 98 96 96 100 97 89 90 94 94 92 88 92 99 98 96 97 94 91 95 100 99 99 101 99 97 97 100 100 99 100 99
19 19 21 22 25 28 28 27 27 26 25 33 42 41 51 76 86 82 81 84 87 88 89 91 92 91 90 90 90 87 85 86 85 86 87 87 88 91 92 93 95 97 98 99 100 100 100 100 100 100 98 94 91 90 91 94 95 95 96 98 99 98 98 99 95 92 94 96 96 99 99 96 96 96 97 94 85 84 94 98 100 100 99 98 97 98 99 100 101 100 98 97 97 100 100 100 100
19 20 21 21 26 32 34 32 31 29 28 38 45 46 70 94 84 75 89 96 92 88 85 84 86 88 89 89 87 86 84 85 86 87 87 88 90 90 91 93 94 95 96 97 99 99 100 100 99 100 100 99 99 97 94 94 94 95 96 95 97 99 99 98 93 88 92 99 100 100 98 96 99 98 95 92 87 87 92 94 96 96 98 101 98 95 94 97 99 98 97 92 91 97 100 99 100
19 19 19 21 26 29 31 30 29 31 32 42 49 52 69 87 86 86 93 91 86 85 82 80 81 83 84 83 82 84 84 83 84 84 85 88 90 90 91 93 93 93 95 95 96 98 99 100 96 96 100 101 100 100 97 96 97 98 98 97 97 99 97 94 92 89 93 99 100 99 98 95 98 99 94 91 90 91 92 91 91 93 96 99 99 96 94 95 95 93 96 96 95 99 99 98 100
24 20 20 23 23 29 36 35 38 40 36 45 64 72 74 82 89 90 85 82 83 82 77 78 81 81 80 81 81 82 82 82 82 82 84 86 88 90 90 92 92 93 94 94 96 98 99 99 94 93 99 99 98 100 100 100 100 99 100 100 98 97 97 95 95 94 95 98 99 100 100 99 99 98 95 94 94 92 92 89 89 92 93 93 97 99 98 99 93 90 97 101 100 100 99 98 99
28 21 22 24 21 31 40 38 45 45 36 52 80 93 92 91 94 89 82 83 83 78 76 78 81 80 81 83 83 83 83 83 82 82 83 84 86 88 90 91 92 93 94 95 96 98 99 100 98 97 98 95 93 95 97 99 101 100 100 100 99 97 96 96 98 99 99 99 100 100 100 100 100 98 97 98 98 96 96 94 92 91 91 94 99 100 99 100 95 93 99 99 96 97 99 99 98
26 24 23 23 21 28 33 33 38 36 43 69 87 94 96 92 94 95 91 91 88 81 79 78 79 80 83 84 83 83 84 82 81 81 81 83 85 87 88 90 91 92 94 95 96 97 97 99 99 99 100 98 94 93 93 96 98 100 100 100 101 100 98 97 97 98 100 100 101 100 98 99 100 99 99 99 99 100 100 99 96 91 88 95 101 100 99 100 98 98 99 96 91 91 96 97 97
19 20 19 22 25 26 27 33 32 33 59 85 86 90 89 79 85 95 97 99 94 86 83 81 83 85 85 85 83 82 82 81 81 80 80 81 83 84 86 87 88 89 91 92 95 94 93 95 96 97 99 99 98 97 95 93 94 97 100 100 100 100 100 100 98 96 98 99 100 100 97 94 97 100 100 98 99 100 99 99 100 95 90 94 100 100 99 100 100 100 99 97 96 95 96 96 96
20 19 19 23 28 27 27 31 26 35 66 82 84 92 83 70 80 87 90 96 89 84 87 86 86 88 87 86 84 82 82 81 81 80 79 80 81 82 83 84 85 86 88 90 92 92 91 92 93 94 97 97 99 101 99 97 95 93 94 98 100 101 100 100 100 97 98 99 100 100 96 88 90 97 99 99 100 100 100 100 100 99 97 98 100 100 100 100 100 100 99 99 100 99 99 98 99
20 22 23 26 29 24 25 29 27 39 62 72 85 92 79 76 87 85 88 93 84 80 85 85 84 86 87 86 83 83 82 82 81 79 78 79 79 80 81 82 84 84 86 88 89 90 91 91 91 92 95 95 96 98 99 100 99 95 92 93 95 99 100 100 100 99 99 100 99 100 98 91 93 97 96 96 100 100 100 100 100 100 100 100 100 100 100 100 100 100 100 100 100 100 100 99 99
25 23 22 26 29 24 23 30 34 42 52 61 70 72 73 87 91 86 90 90 82 80 80 82 84 83 85 84 81 81 82 81 80 78 78 79 79 80 80 81 82 82 83 84 85 87 88 90 91 92 93 93 93 95 97 99 100 99 96 93 91 94 98 99 100 100 100 100 100 100 100 98 99 100 97 97 100 100 100 101 100 100 100 100 101 100 100 100 100 100 100 100 100 100 100 98 96
Wind_Speed
4 4 5 4 3 3 2 2 1 1 0 1 1 1 2 4 2 5 4 2 3 1 1 2 1 1 0 1 5 6 7 3 2 2 2 3 8 14 14 19 23 22 24 23 23 24 23 24 24 24 24 24 25 25 25 25 25 25 25 24 22 21 21 20 20 20 20 21 22 22 21 23 23 22 22 23 23 24 23 22 21 20 19 20 20 20 20 21 22 22 22 22 21 20 19 19 19
5 5 4 4 3 1 1 1 1 1 1 3 2 3 0 1 2 5 5 2 3 3 4 2 3 3 3 4 6 5 6 7 4 4 4 8 13 13 15 20 22 22 23 23 24 23 21 23 24 24 24 25 25 25 25 24 24 24 22 21 20 20 21 20 20 20 20 21 22 22 22 23 22 22 22 23 24 25 24 23 21 19 19 19 20 21 21 21 22 22 22 21 19 17 16 17 18
5 5 4 5 3 2 1 0 1 1 2 4 3 3 1 2 5 4 4 5 6 5 4 2 2 3 2 3 3 2 5 5 5 5 6 13 13 12 17 20 20 21 22 22 23 22 21 22 24 24 24 25 25 25 24 23 23 22 21 19 20 20 20 20 20 20 20 21 21 21 22 22 22 22 23 24 25 24 23 23 22 19 19 19 19 20 20 21 21 20 20 19 18 16 15 15 15
5 5 3 2 1 1 2 0 1 2 3 3 2 3 3 3 3 3 3 4 7 5 3 3 2 2 2 4 3 2 6 4 5 6 7 11 11 14 18 20 20 19 20 20 21 21 21 23 24 24 25 25 25 24 23 22 22 21 20 19 20 21 20 20 20 21 21 21 21 21 22 22 22 22 22 24 24 24 23 23 22 20 19 19 19 19 19 19 19 19 19 18 17 15 14 13 12
5 4 2 0 1 1 1 1 1 3 4 2 1 0 3 3 1 2 4 6 7 4 2 2 2 1 2 6 3 1 4 3 5 6 8 9 11 17 19 21 20 18 20 19 19 20 20 23 24 24 25 25 24 23 21 21 21 21 19 19 21 21 21 21 20 20 21 20 21 21 21 22 21 22 22 24 25 24 23 22 22 21 19 20 19 19 18 17 18 18 18 17 15 15 15 15 15
6 4 4 2 1 0 1 1 2 4 4 3 3 1 2 2 2 4 6 7 5 2 3 2 2 2 3 5 4 5 5 1 4 5 10 12 15 18 20 20 18 18 19 19 19 19 21 23 24 24 24 23 23 21 21 21 21 20 19 19 20 20 20 20 20 19 20 20 20 20 20 21 21 21 21 23 24 24 24 24 23 21 19 20 19 17 17 16 17 18 17 15 15 16 17 18 18
5 3 2 2 2 1 2 2 2 3 3 5 5 4 1 2 2 5 7 5 1 3 1 2 3 5 4 2 3 7 7 3 2 6 12 15 18 18 19 19 18 19 18 19 19 19 22 24 24 24 23 22 22 21 21 21 21 20 19 18 19 19 18 19 20 19 20 20 19 19 19 20 20 20 21 22 22 23 24 24 23 20 19 19 18 17 16 16 18 17 15 15 15 16 17 17 17
4 1 1 1 2 1 1 1 2 3 2 4 5 7 8 6 3 5 6 2 0 1 3 4 4 4 3 1 2 6 9 6 5 11 16 18 20 19 19 19 18 19 18 18 19 20 22 24 25 23 23 22 21 21 21 21 21 20 20 19 18 18 17 18 19 19 20 19 18 19 19 20 18 18 20 21 20 21 22 21 21 20 19 19 18 17 17 18 17 16 15 14 15 16 16 16 15
2 1 1 1 2 0 1 1 2 3 4 5 7 9 11 9 5 6 6 3 2 2 5 6 3 4 4 3 4 4 7 7 10 15 17 18 19 19 19 18 18 19 19 18 19 21 21 23 24 23 22 22 21 21 21 20 21 20 19 18 19 18 16 18 19 19 20 19 19 19 19 19 16 17 19 19 19 20 19 19 20 19 19 19 18 18 18 18 16 15 14 14 15 16 16 15 14
1 1 1 1 2 2 2 2 2 2 4 6 8 11 11 9 7 7 7 4 2 4 6 3 2 5 6 6 4 2 4 7 12 16 17 18 19 18 18 17 17 19 20 19 20 21 21 22 22 22 21 21 21 20 21 20 20 20 19 19 19 18 17 18 20 20 19 20 20 19 19 18 15 17 18 17 18 18 17 18 19 19 19 18 18 19 19 17 15 14 13 14 16 16 15 14 13
1 1 0 1 2 3 3 3 4 4 5 6 8 10 9 7 5 6 7 3 1 4 6 2 4 9 8 6 3 2 4 7 12 16 17 18 17 16 17 16 16 18 19 20 21 20 21 21 20 21 20 20 20 19 20 20 20 21 21 20 20 19 18 19 21 21 19 20 21 20 19 16 16 17 17 16 17 17 17 17 17 17 16 16 18 18 18 16 14 13 12 13 15 15 14 13 12
1 1 1 2 2 2 1 2 5 6 7 6 5 3 1 3 3 4 5 3 3 5 4 2 5 8 6 6 2 3 6 8 10 15 17 17 16 15 16 16 17 17 19 20 20 20 21 20 19 19 19 20 19 18 19 20 19 20 21 21 20 19 18 20 21 21 20 20 20 20 18 17 17 17 15 15 15 15 15 15 15 15 15 15 16 17 16 15 13 12 12 13 14 14 14 13 12
1 2 2 2 1 1 1 2 3 5 5 2 3 3 2 3 3 2 3 5 4 5 3 1 6 5 4 6 3 5 7 8 10 14 17 16 15 15 15 17 17 18 19 19 19 20 20 20 19 17 18 19 19 18 19 20 18 19 21 20 19 18 18 19 21 22 20 19 19 18 18 17 16 15 15 13 13 14 14 13 14 14 14 15 16 16 15 15 13 12 12 12 12 13 14 13 12
1 2 2 2 0 1 1 2 2 3 3 1 2 5 5 2 2 1 5 7 4 2 2 2 4 2 4 6 4 5 7 10 12 15 17 15 14 14 16 17 18 19 19 19 20 21 20 20 20 18 18 18 18 18 18 19 18 19 19 19 17 17 17 19 21 22 20 20 19 17 18 17 15 14 14 12 11 12 12 13 13 13 14 15 15 15 15 15 13 12 12 12 12 14 15 14 13
1 1 1 1 1 1 2 2 1 2 1 1 2 6 5 1 2 0 2 4 3 2 2 3 2 0 3 4 4 8 11 14 15 17 17 15 15 15 16 17 17 19 20 20 20 21 21 21 20 20 19 18 18 17 17 17 17 18 18 17 16 15 16 17 20 21 20 19 18 17 18 17 15 15 14 12 10 10 11 12 12 12 14 15 15 16 16 15 14 13 13 12 14 16 16 15 13
1 1 1 1 2 1 2 2 1 2 1 1 2 7 5 1 2 1 2 1 6 2 1 3 5 3 3 4 8 15 17 17 17 18 17 17 16 16 17 17 18 19 19 20 20 21 21 21 20 20 20 20 20 19 18 16 16 17 16 16 15 15 15 16 19 18 18 17 17 17 18 16 15 14 13 12 10 9 11 11 10 11 13 15 16 16 16 15 15 14 13 14 16 17 17 15 14
1 1 1 1 2 3 3 4 3 1 2 2 4 8 5 2 3 2 2 4 8 4 3 5 6 5 5 7 16 23 21 19 19 19 19 19 17 16 17 17 18 19 19 19 20 22 22 21 20 19 19 20 20 19 19 18 17 17 16 16 15 15 13 14 17 17 16 15 15 17 17 15 14 14 12 12 11 10 11 10 10 10 12 16 17 17 16 15 15 15 15 15 16 17 17 15 14
2 2 2 3 3 3 4 5 3 0 4 4 6 7 5 3 4 3 3 8 7 5 5 6 9 9 10 16 23 25 22 22 21 21 19 18 17 16 17 17 18 19 21 19 20 22 21 21 20 20 19 19 19 18 19 19 18 18 17 16 16 15 13 15 17 17 16 15 14 16 16 14 13 13 12 12 12 12 12 10 9 8 10 16 18 18 17 15 16 16 16 15 16 17 17 16 14
3 2 2 5 4 2 3 3 2 2 4 6 8 5 4 4 3 2 1 5 4 5 5 6 12 12 14 19 23 24 23 22 21 21 20 18 18 18 17 17 17 19 21 20 20 20 20 20 20 20 20 20 19 17 18 18 19 18 17 17 16 15 14 16 17 17 16 15 15 15 15 14 14 13 12 13 13 13 12 10 10 9 10 15 19 18 17 16 16 17 17 16 16 16 16 15 14
2 2 4 5 3 3 3 3 5 4 4 7 8 4 3 4 0 2 2 5 3 3 4 6 11 12 14 17 21 23 22 21 20 20 19 18 18 18 18 19 18 19 20 20 20 20 19 20 19 19 19 20 20 19 19 18 18 17 17 17 17 17 16 17 18 17 16 15 15 16 15 14 13 12 12 13 13 13 13 10 10 9 10 14 18 18 17 16 16 16 17 15 15 15 15 14 14
3 3 5 2 2 4 4 4 6 4 3 3 5 6 5 3 1 2 5 5 0 3 3 4 12 16 16 16 19 21 21 19 19 18 18 17 16 16 17 18 17 18 19 19 20 19 19 19 18 18 19 20 20 20 20 18 18 17 17 17 17 17 16 17 18 17 16 16 16 16 15 14 13 12 12 13 13 13 12 10 9 9 10 12 16 15 15 16 16 16 17 16 15 14 13 14 14
3 4 4 3 2 4 4 2 3 1 2 2 3 6 5 3 1 2 4 4 2 1 1 5 15 18 18 18 18 19 18 18 17 17 17 17 15 15 15 14 13 15 17 17 18 18 18 18 17 17 18 18 18 19 19 18 18 17 17 17 16 16 15 15 17 17 16 16 17 17 16 15 13 12 12 12 12 12 12 10 9 9 10 12 14 13 13 17 16 16 17 16 15 14 13 13 13
4 3 2 5 5 6 4 1 2 1 2 4 3 3 3 4 2 1 2 0 1 3 3 8 15 17 19 19 18 17 17 16 17 19 19 17 15 17 16 14 12 13 15 15 17 17 18 17 17 17 17 17 18 18 18 19 19 18 18 18 17 16 15 15 17 17 17 17 18 18 17 15 14 12 11 12 12 12 11 11 9 9 9 10 12 12 15 18 16 15 16 16 16 14 13 13 12
6 4 2 5 5 7 6 3 4 2 4 6 3 2 1 3 1 1 3 1 2 3 5 12 15 17 18 17 16 17 17 17 18 19 19 15 13 15 16 15 14 13 13 14 16 16 17 17 17 18 17 17 18 19 19 20 19 19 20 19 18 17 17 17 17 18 18 18 18 19 18 16 14 12 12 12 12 11 11 10 9 10 10 9 9 14 17 17 16 14 15 16 16 15 14 13 12
6 6 4 4 4 5 4 5 7 4 5 5 4 3 3 4 1 2 3 3 5 4 10 14 16 16 16 16 17 16 16 16 17 18 17 14 9 11 10 10 11 13 13 13 14 16 16 17 18 19 19 18 19 20 20 20 20 20 21 20 19 19 18 17 17 19 19 18 18 19 18 17 16 14 13 12 11 11 11 10 10 12 12 10 9 14 17 17 16 14 14 15 15 15 15 14 13
6 9 5 5 6 3 2 5 6 2 2 3 4 2 3 3 1 2 2 4 5 7 11 14 15 16 15 15 16 15 15 16 17 17 16 13 7 12 10 9 12 13 11 11 14 17 18 19 22 22 22 20 20 21 22 22 22 22 21 20 19 19 17 16 18 20 20 18 18 18 18 18 17 15 15 13 11 11 11 11 12 13 14 12 11 13 16 17 16 15 14 14 14 14 14 14 13
5 8 6 8 7 3 2 5 5 3 3 5 5 2 2 3 3 2 1 1 4 9 11 12 13 14 14 14 14 14 14 16 16 16 14 13 11 11 13 14 15 12 8 12 17 20 23 23 24 25 25 21 20 22 22 24 23 22 22 20 19 18 16 15 18 20 19 19 18 17 16 17 17 15 15 13 11 11 11 12 11 13 14 13 13 13 14 16 17 15 12 12 12 13 13 13 12
4 6 4 7 5 3 5 6 5 3 3 3 4 2 0 2 2 2 2 3 5 9 11 11 11 11 13 14 13 12 12 14 16 16 14 16 16 14 14 12 13 15 15 21 22 22 24 23 22 23 23 22 23 24 23 24 23 22 22 21 19 19 18 16 19 20 17 17 18 17 16 17 17 15 14 13 11 10 11 12 11 13 14 13 13 13 13 15 16 15 13 11 10 11 12 13 12
3 4 3 4 2 3 6 3 2 2 1 2 4 3 1 1 1 0 1 4 6 9 10 11 11 10 11 12 11 10 11 12 15 16 15 17 15 13 14 12 14 20 24 26 24 22 23 22 21 22 23 24 24 24 23 21 21 20 20 20 18 19 18 15 18 19 16 17 18 17 17 17 17 14 14 13 11 10 11 12 12 13 14 13 14 14 13 13 15 15 14 12 10 10 12 12 12
3 3 2 2 1 2 2 1 1 2 1 2 4 3 2 1 1 3 3 3 7 9 9 9 9 9 10 11 10 9 11 12 13 15 15 16 15 13 13 13 17 23 24 23 21 22 24 23 23 22 23 26 23 21 20 19 20 19 18 18 17 17 16 13 14 17 16 17 18 18 17 17 17 14 14 14 12 10 10 12 13 13 14 14 15 15 14 13 13 14 15 13 11 10 10 11 12
3 4 1 1 2 2 1 1 2 3 1 1 5 3 1 2 6 8 6 2 4 5 7 8 8 9 9 9 9 9 10 11 13 14 13 13 14 13 13 14 17 19 20 21 19 19 21 22 23 21 21 22 20 18 18 18 18 18 17 17 17 16 14 12 13 15 16 17 19 20 19 17 17 15 14 14 12 11 10 12 14 13 13 14 15 16 15 14 13 13 14 14 12 10 8 8 9
1 3 3 1 2 1 2 1 2 2 2 1 4 3 2 5 9 11 8 2 2 1 3 6 7 8 8 7 7 7 8 9 12 13 11 11 13 13 13 15 17 17 20 22 20 18 19 21 22 20 19 19 18 18 18 17 16 16 17 17 16 15 15 14 13 14 15 17 19 21 20 18 17 17 15 14 13 12 11 12 14 13 13 14 14 16 15 14 13 13 13 13 12 10 7 7 8
1 2 3 3 3 2 2 2 1 1 2 1 2 1 3 5 9 12 10 5 2 2 1 4 7 7 5 4 5 5 6 8 10 12 12 12 14 15 16 16 16 18 19 20 20 19 19 19 19 19 19 18 17 15 15 16 15 16 18 18 15 15 15 14 14 15 15 17 18 19 20 20 18 17 17 15 14 13 13 13 14 13 13 14 14 15 16 15 13 13 12 12 12 11 8 8 8
2 1 2 2 2 2 1 2 2 1 3 3 1 2 4 6 8 10 12 8 4 2 3 3 6 6 3 3 4 5 6 7 8 12 14 14 16 19 21 19 17 17 17 19 20 18 18 15 15 17 18 17 15 13 13 15 15 15 18 19 16 15 16 14 13 17 17 16 18 20 21 20 19 18 18 17 16 15 15 15 16 15 14 14 14 15 15 15 14 14 12 11 12 12 9 9 9
4 4 3 2 2 2 1 2 1 2 2 4 3 2 5 8 9 10 12 10 8 6 6 4 4 4 4 4 4 5 6 7 7 10 13 14 15 18 21 20 17 15 16 18 17 15 14 12 13 16 16 14 12 11 11 12 13 13 14 16 17 15 15 15 14 18 19 19 20 21 21 21 21 20 20 19 18 17 16 17 18 17 16 15 15 15 14 14 14 14 13 12 12 10 8 9 9
6 5 4 4 4 2 1 1 1 1 3 4 4 4 7 10 11 11 10 9 10 10 8 6 5 1 5 6 5 5 5 5 4 8 11 13 15 17 16 14 14 14 15 15 14 13 13 11 11 11 10 9 7 7 10 11 11 11 11 13 16 16 16 17 17 19 22 23 23 22 22 23 23 22 22 21 19 18 18 19 20 19 17 16 17 17 14 14 14 14 13 13 12 10 8 8 9
6 5 4 3 3 3 1 0 1 0 3 5 7 9 10 10 11 11 8 8 11 13 11 9 8 4 2 4 4 4 3 1 0 3 6 8 12 14 12 9 8 7 8 9 9 10 9 9 8 9 8 4 1 3 6 8 8 9 11 12 15 17 17 18 19 21 23 24 25 24 24 24 24 24 23 22 20 20 19 20 22 20 18 17 17 18 17 15 14 14 13 12 13 12 10 10 10
6 5 4 2 2 3 2 1 3 2 3 2 6 12 11 9 10 11 9 10 13 13 12 11 9 7 3 2 3 3 2 2 2 2 0 2 5 6 3 5 9 11 13 12 10 9 11 12 12 13 12 8 4 5 4 7 9 9 11 14 17 18 19 19 19 20 22 25 25 24 25 25 25 25 24 23 21 20 20 21 22 23 20 18 17 18 18 17 16 15 14 13 12 12 11 11 12
4 3 3 3 2 1 1 2 4 3 3 4 5 12 9 7 9 11 11 11 11 11 12 11 10 9 7 5 4 4 3 3 4 5 5 3 3 4 8 11 9 8 8 7 5 5 5 6 7 7 10 10 11 13 12 13 14 13 12 15 18 19 18 19 18 18 21 25 26 24 24 24 25 26 25 24 22 20 20 20 23 25 23 20 18 17 18 18 17 16 16 15 12 11 10 11 13
2 3 3 3 2 1 3 3 3 4 3 6 9 11 7 6 7 9 11 10 10 11 12 13 11 10 10 8 8 7 6 6 7 7 8 7 7 9 9 8 6 6 7 7 4 2 2 6 11 16 19 16 12 12 12 12 13 12 13 14 17 19 18 17 18 18 20 24 26 25 23 21 22 23 22 22 20 19 18 20 23 26 24 22 19 18 17 17 18 18 16 16 14 13 11 10 12
1 3 4 3 2 2 2 3 2 3 4 4 8 8 5 6 7 8 9 9 10 11 12 15 13 12 11 11 11 10 9 9 9 9 10 10 10 11 9 7 7 8 9 9 7 5 4 7 14 18 18 12 7 6 6 7 9 10 12 12 14 17 17 16 17 18 19 22 23 24 25 22 20 19 18 18 17 15 17 20 23 25 23 22 21 21 20 16 18 19 17 18 16 14 13 11 12
2 3 5 4 5 4 1 3 3 4 3 3 1 3 2 5 7 8 7 8 11 11 14 16 13 12 12 12 11 10 10 10 10 11 12 13 13 13 12 10 7 6 6 7 8 9 8 10 14 16 15 11 7 6 4 5 7 9 11 11 12 15 16 17 18 17 18 20 22 24 27 24 19 16 14 15 14 13 15 18 21 24 24 22 21 23 24 20 22 22 18 17 16 14 13 13 13
3 4 5 4 4 3 3 3 2 2 3 2 1 1 3 2 5 7 7 8 11 13 16 15 12 12 11 11 12 11 12 11 11 12 13 14 14 14 14 13 11 9 7 7 8 10 10 9 11 12 12 10 7 5 4 4 6 8 10 11 11 13 14 17 17 16 15 18 21 24 26 24 19 16 15 13 12 11 12 14 19 23 24 24 21 21 23 24 26 23 18 17 17 16 15 14 15
2 3 7 7 5 5 5 4 3 1 1 2 1 0 4 3 3 6 5 6 12 13 14 13 11 12 12 13 13 13 12 11 11 12 13 14 15 15 15 15 14 11 9 9 9 9 9 9 10 9 8 7 4 3 2 2 4 5 8 10 11 12 13 14 14 14 14 16 21 23 22 21 19 18 18 15 13 14 16 17 19 21 22 22 21 21 22 23 23 20 19 21 18 16 16 14 15
1 3 7 6 5 5 5 3 3 1 1 3 1 0 3 3 2 3 3 5 11 12 12 11 11 11 12 13 13 13 12 12 12 11 12 14 16 17 17 17 17 14 12 10 10 11 10 10 10 10 10 8 7 5 3 3 4 4 6 9 11 12 11 12 12 13 14 16 18 17 15 16 17 18 19 18 17 19 22 23 22 23 23 21 20 21 22 22 22 19 22 24 19 16 16 15 15
2 7 6 4 3 3 3 3 2 1 3 4 1 2 2 3 1 0 1 4 7 7 8 10 10 11 12 12 13 13 11 11 11 11 14 15 16 18 18 19 20 19 17 14 13 13 12 12 11 11 11 11 10 8 5 4 5 6 7 9 11 12 11 12 12 11 12 14 15 12 10 14 18 17 17 19 20 21 22 24 24 25 26 24 21 20 20 20 21 21 24 24 19 17 16 15 15
8 9 6 4 3 2 1 1 1 2 4 2 2 4 1 3 2 2 1 3 5 5 6 8 9 11 12 12 12 13 11 10 10 11 15 17 17 20 21 21 21 21 22 21 19 17 15 15 14 13 13 13 13 12 10 7 5 6 8 9 10 10 10 12 11 8 9 12 12 12 10 13 18 16 15 17 21 21 21 22 25 26 26 26 23 21 20 18 17 21 24 23 19 18 16 15 16
7 5 4 5 3 1 2 2 1 5 5 1 1 3 1 2 2 3 4 4 5 6 7 7 8 10 11 11 11 11 11 11 11 11 14 17 19 21 21 21 21 22 23 23 22 20 18 18 18 16 16 15 14 13 12 11 9 7 8 9 10 9 9 11 11 9 11 13 13 14 12 12 15 16 15 17 20 21 20 21 23 23 24 25 24 21 20 16 14 17 20 20 18 18 16 14 16
4 4 6 7 4 3 4 3 3 5 2 1 2 3 2 4 4 6 6 6 7 8 8 8 8 10 10 11 11 10 10 11 11 11 11 13 16 18 19 19 20 21 22 22 22 21 20 19 18 17 16 15 13 13 11 10 10 10 10 10 11 10 10 12 13 13 14 13 13 13 11 11 12 13 17 18 19 22 23 22 22 20 20 23 23 22 19 15 13 14 15 18 18 17 15 14 15
6 6 7 8 5 5 5 3 2 2 2 1 4 3 3 5 5 7 7 8 10 10 9 9 10 10 10 10 10 9 10 10 10 10 10 11 15 16 17 18 18 19 21 21 21 21 20 19 20 19 17 16 15 13 11 9 8 9 9 10 10 10 10 13 15 15 13 11 11 12 12 12 12 14 17 19 20 23 25 24 23 23 22 21 22 25 22 18 17 17 16 18 18 17 17 17 16
6 4 4 5 4 3 4 3 3 3 3 2 3 1 3 4 5 8 9 10 10 10 9 10 10 10 9 9 10 10 10 9 9 9 11 13 15 17 17 17 18 19 20 20 20 21 20 20 22 23 21 19 17 16 14 12 10 9 8 9 9 10 11 13 14 15 14 12 12 13 15 15 14 14 16 19 21 22 23 24 24 24 24 23 24 26 24 22 21 21 19 18 17 18 20 19 17
3 1 2 4 4 3 3 1 1 2 3 2 2 2 2 2 6 9 10 11 10 9 9 10 10 10 9 10 11 11 9 10 10 10 11 14 16 17 18 18 18 18 19 19 20 20 20 22 24 24 22 20 19 18 18 17 15 13 11 10 10 10 12 13 13 14 14 13 12 13 14 13 12 14 16 18 20 21 22 23 23 24 24 25 26 25 24 23 23 21 19 17 17 19 20 20 18
3 3 4 2 2 5 4 2 2 1 3 2 1 2 3 3 5 8 9 10 9 8 9 10 10 10 10 10 9 9 9 9 10 10 11 14 16 18 18 18 18 19 19 19 20 20 20 21 22 22 21 20 19 20 20 20 19 17 15 12 10 11 13 14 14 13 12 12 11 12 13 13 12 14 15 15 17 19 20 20 20 22 24 25 24 23 23 22 22 21 19 19 21 20 16 17 18
5 6 6 3 2 2 2 3 2 1 3 2 0 3 7 5 3 7 10 8 7 8 9 9 9 10 10 10 8 9 9 9 10 11 12 15 16 17 18 18 18 18 18 18 18 18 18 19 19 19 19 19 19 19 19 19 20 19 17 14 11 11 14 15 14 13 12 11 10 11 14 15 14 12 13 15 16 16 16 17 18 19 22 23 20 20 22 21 19 19 19 20 21 20 16 16 18
2 5 7 3 2 3 2 2 4 3 3 2 1 1 5 6 3 7 11 8 8 8 7 8 10 10 9 8 9 9 10 9 10 10 11 14 16 17 17 18 19 18 17 17 17 18 19 19 18 17 17 17 17 17 17 17 19 19 17 15 13 11 13 14 13 13 13 13 11 10 12 15 14 11 13 19 18 16 15 14 15 17 21 21 19 19 22 22 18 16 16 17 17 18 19 19 18
3 5 5 0 1 3 2 2 2 4 4 3 4 2 5 5 2 5 10 10 10 9 7 7 10 10 8 8 8 9 9 9 9 9 10 12 15 16 16 17 18 17 17 17 18 19 19 19 19 18 17 17 16 15 15 16 17 19 18 17 15 12 11 12 12 13 14 14 12 10 12 16 15 12 15 19 19 16 15 13 13 16 20 21 20 20 21 20 18 15 15 16 16 17 19 18 17
4 7 5 2 2 2 2 2 2 2 5 4 4 4 5 3 1 2 7 10 10 9 8 8 9 9 8 8 7 8 8 8 8 8 9 12 14 16 16 16 16 16 16 18 19 18 18 19 19 18 17 18 18 17 14 14 16 18 18 18 17 15 12 11 13 14 15 14 14 14 14 14 14 14 17 21 20 17 14 13 13 14 17 19 19 20 20 19 16 15 15 15 16 16 17 18 17
3 5 5 3 4 4 5 3 1 2 3 4 4 4 4 2 2 4 8 9 8 9 9 9 10 10 8 8 8 7 7 7 8 8 10 13 15 16 17 17 17 17 18 20 20 19 20 20 20 19 19 21 23 23 18 14 14 15 17 19 19 18 16 14 14 14 14 15 15 15 14 11 10 13 16 19 19 17 15 13 13 14 15 16 17 18 19 19 17 16 15 15 17 17 16 18 19
Wind_Direction
147 130 113 111 89 116 77 27 201 68 152 245 225 245 221 208 306 290 267 259 274 316 285 320 12 298 30 81 130 106 42 35 26 5 63 85 141 146 148 147 146 144 145 145 147 148 148 150 151 151 149 148 145 145 145 144 144 144 144 143 141 138 136 132 129 130 128 129 129 127 125 126 124 122 123 123 122 120 117 114 112 111 109 106 105 103 103 106 108 107 106 104 102 101 102 103 101
144 128 109 117 81 111 146 353 236 84 200 245 219 205 8 156 224 250 253 300 308 346 8 18 89 57 18 59 109 112 56 44 50 60 87 128 133 135 147 147 145 143 143 145 146 144 145 149 150 150 148 147 145 144 143 142 143 143 141 138 136 134 133 131 130 131 128 129 129 128 126 125 125 125 125 124 123 122 119 118 117 114 110 108 106 105 104 106 107 107 107 105 102 101 102 103 101
143 128 119 128 72 19 124 19 231 132 202 239 234 202 193 192 211 242 257 282 301 313 329 328 103 35 328 102 57 14 65 66 83 87 114 136 134 138 148 145 144 142 142 146 145 144 145 149 149 149 149 148 147 146 144 142 142 141 137 133 134 134 133 132 132 131 128 129 130 130 129 129 129 127 126 124 123 122 123 122 121 116 112 109 107 107 107 107 107 108 110 108 104 103 105 105 101
141 127 133 153 106 44 133 138 181 167 207 231 265 203 200 210 211 248 262 289 299 290 308 324 106 14 336 79 18 18 74 64 89 100 128 138 137 142 148 145 143 141 142 145 145 145 145 149 149 149 150 150 149 147 144 143 142 139 135 134 135 135 135 134 133 130 130 132 133 132 132 132 131 129 127 126 126 125 126 126 124 120 115 112 109 108 107 107 108 110 113 111 108 109 107 104 102
135 116 99 269 192 142 134 122 115 195 214 188 300 113 184 216 214 274 289 306 294 257 246 332 50 43 45 53 6 36 48 46 92 104 124 129 136 143 147 143 140 140 141 142 143 144 145 148 148 150 153 152 151 146 141 141 142 137 135 137 138 137 137 135 132 131 133 134 134 133 132 133 132 131 129 128 128 128 130 129 129 127 122 122 118 115 111 108 111 114 114 110 106 106 104 100 98
133 109 63 49 111 32 167 192 175 214 232 185 256 346 117 219 270 291 301 314 311 229 217 258 30 69 82 49 36 42 13 29 102 109 125 131 138 142 143 140 138 139 142 144 143 142 146 149 149 151 152 152 151 144 140 143 142 138 138 141 140 138 137 135 134 134 134 134 133 132 131 132 133 132 132 132 132 133 137 136 136 133 126 127 123 118 115 113 117 117 110 104 101 101 100 95 94
148 135 57 86 107 334 213 225 214 231 237 190 247 299 323 250 233 287 309 323 27 103 183 186 135 118 91 56 74 43 17 24 93 124 131 135 138 139 140 138 137 139 144 147 145 144 149 151 150 151 151 150 149 143 143 147 143 138 141 142 140 138 136 135 135 134 133 132 132 131 131 132 132 131 133 136 137 139 141 140 139 134 128 129 126 121 120 122 122 115 106 102 99 99 97 93 91
149 140 340 201 142 349 216 240 241 236 229 206 262 280 279 278 244 281 296 298 338 95 138 151 154 136 89 25 79 39 23 38 96 124 131 136 138 139 140 139 139 142 146 148 147 147 150 152 152 152 151 151 150 144 144 148 143 140 142 141 139 137 136 136 135 135 133 132 132 132 132 132 132 132 133 136 140 143 143 142 141 136 134 133 130 128 128 130 126 115 106 101 98 97 95 92 89
102 30 203 217 178 244 211 251 257 236 251 254 268 261 266 274 250 255 258 251 259 204 161 159 183 160 120 83 89 52 29 61 109 123 132 138 138 140 142 143 142 144 147 148 149 150 152 154 153 151 151 153 150 146 146 146 141 140 140 140 138 137 138 138 138 138 136 135 134 135 136 136 135 136 137 135 138 141 143 145 144 140 138 137 135 134 133 133 128 116 106 100 96 95 95 94 90
63 4 170 167 181 226 231 242 259 241 259 262 269 263 265 268 245 234 246 252 215 180 159 145 116 129 123 100 93 58 40 90 116 122 133 139 141 142 143 147 147 147 149 149 150 152 154 154 152 149 152 152 149 148 146 143 141 141 141 140 140 141 141 142 143 141 141 140 139 140 141 141 139 139 137 135 136 138 141 146 146 144 143 142 138 136 136 136 130 118 107 102 96 95 97 97 94
157 55 159 199 195 231 233 242 255 272 282 281 277 265 264 268 245 224 234 228 168 151 160 186 120 122 116 103 85 56 83 110 121 127 137 140 140 141 144 149 152 150 149 151 151 152 154 153 151 149 151 150 148 149 145 143 144 143 143 143 144 146 146 145 146 146 146 145 144 146 146 145 141 140 135 133 137 139 140 141 143 146 145 142 139 139 140 140 133 121 110 104 97 97 102 103 101
193 138 177 208 218 231 220 265 270 290 286 289 295 282 285 255 219 216 217 176 137 132 151 226 152 137 116 108 116 121 109 110 118 132 140 140 140 142 146 149 151 150 148 151 152 153 153 152 151 150 150 150 150 147 146 147 146 144 145 147 148 150 151 150 149 149 149 148 149 149 149 146 142 140 135 134 138 138 136 137 140 145 147 147 145 145 145 144 136 125 113 104 100 104 109 111 108
199 148 171 191 246 189 153 268 282 303 288 302 303 316 350 237 232 228 162 119 126 133 123 146 146 139 105 110 131 137 121 114 118 132 141 139 140 142 146 148 149 150 150 151 153 155 155 152 151 151 150 150 151 149 149 150 149 149 148 149 151 152 153 153 152 151 152 152 154 153 150 145 144 142 135 135 139 135 135 140 144 147 153 156 152 150 149 146 140 128 116 108 108 116 119 116 109
181 160 199 187 43 133 181 258 275 280 276 2 312 314 318 274 293 235 138 112 102 94 90 116 143 134 119 127 144 146 130 128 128 135 141 138 139 143 147 150 150 152 154 154 155 158 158 156 152 153 152 150 151 152 153 154 154 153 152 151 150 151 153 154 154 154 155 155 157 157 151 146 147 146 139 137 141 140 139 143 147 150 158 160 156 154 151 146 141 131 119 115 121 125 124 118 108
181 154 191 181 144 162 207 227 285 267 260 359 344 332 319 327 357 291 110 105 99 21 119 109 17 349 135 134 156 157 141 137 140 140 140 137 140 145 148 151 153 156 158 158 158 159 160 160 156 156 156 153 153 154 156 159 158 156 155 153 150 152 153 155 157 157 158 158 159 156 151 149 148 148 145 141 143 147 146 145 146 150 160 162 159 157 153 146 140 132 123 125 130 128 126 120 110
169 139 122 214 192 189 198 186 237 277 283 263 341 344 334 53 24 343 343 118 125 76 358 68 12 8 66 69 133 144 141 140 143 142 138 138 142 146 150 153 155 158 160 161 161 162 163 163 161 160 161 160 158 156 158 160 160 158 157 158 155 154 154 157 158 156 157 159 157 152 150 150 150 151 148 143 145 154 155 148 141 149 161 162 161 159 153 146 138 131 128 133 135 131 127 121 111
144 172 186 199 197 205 191 188 194 253 317 281 345 353 339 17 58 68 40 77 109 89 32 54 30 30 68 97 129 136 140 141 142 141 139 142 146 148 153 156 157 159 161 162 165 166 168 168 165 165 165 164 161 158 158 158 160 161 159 161 159 155 156 158 156 154 157 159 155 151 151 151 154 156 153 149 148 155 162 153 140 149 159 160 161 159 153 145 137 134 134 137 137 132 128 121 111
181 182 199 206 199 208 192 194 188 251 327 319 337 349 334 347 90 123 86 75 85 86 57 65 62 64 94 116 128 134 140 142 143 146 146 150 154 157 159 161 160 162 164 164 168 169 168 171 170 168 167 167 163 160 160 159 161 163 161 161 161 159 158 157 156 159 161 161 158 154 155 158 160 161 159 156 151 155 164 155 141 146 154 157 159 157 153 144 139 138 138 140 138 133 129 125 118
193 146 205 218 194 210 199 196 205 253 310 322 324 337 330 322 110 165 172 120 127 110 81 84 86 89 110 123 131 137 142 144 149 153 155 160 167 168 163 162 163 166 169 167 169 171 170 173 174 170 168 168 165 163 162 162 163 166 164 163 164 163 161 162 162 164 166 166 165 162 162 166 165 164 164 159 152 155 166 160 145 146 152 156 156 155 152 145 142 142 141 142 139 136 134 130 126
191 171 223 225 200 254 232 212 238 241 289 313 315 319 320 309 267 298 183 147 159 140 133 117 113 119 126 132 138 141 145 149 155 159 162 171 176 173 166 164 166 168 171 170 170 173 174 176 176 175 172 170 169 168 166 165 166 168 167 166 167 168 167 169 170 169 171 173 171 168 168 169 168 167 165 162 157 157 166 164 148 146 151 155 154 152 151 147 144 143 142 142 142 142 140 133 130
170 197 229 216 145 257 235 209 241 243 255 282 308 311 323 334 319 250 174 140 98 206 204 145 136 141 140 144 147 147 151 153 159 164 169 179 179 170 166 168 167 167 170 171 173 175 178 179 177 177 177 175 174 173 171 169 169 170 171 171 171 171 172 172 174 175 176 179 177 172 172 172 170 170 170 169 165 162 165 163 153 150 152 158 157 152 153 152 148 144 143 144 147 148 145 138 133
168 204 241 232 182 253 254 206 230 213 215 242 305 306 324 333 310 197 183 135 105 241 276 134 142 149 150 151 151 151 154 156 163 169 175 184 178 164 163 164 162 165 169 173 176 179 181 181 181 180 180 182 181 178 176 173 172 173 175 174 173 173 174 174 177 180 181 184 182 178 175 174 172 174 178 177 172 168 166 164 163 161 161 167 165 159 158 156 152 147 147 149 153 153 148 143 136
208 200 235 240 224 245 272 298 214 178 262 278 293 301 343 324 330 133 257 107 85 358 47 127 144 151 151 150 153 156 159 163 169 175 181 186 177 166 164 160 160 167 171 176 179 183 185 183 183 183 184 186 187 185 180 177 177 178 178 177 176 176 176 177 181 184 184 186 187 183 179 176 175 177 181 182 179 174 170 170 170 167 165 168 168 165 161 159 157 151 150 153 154 155 152 147 140
225 216 231 242 227 239 262 283 259 248 267 268 267 294 313 271 337 110 255 300 17 10 102 131 141 147 148 151 157 161 164 168 174 180 186 190 177 163 162 159 164 170 173 181 184 186 187 187 186 186 189 190 191 192 186 184 184 182 181 181 182 181 178 180 183 186 187 187 187 185 183 180 178 180 183 186 187 182 177 176 176 174 166 163 166 166 164 162 162 155 150 151 152 155 152 149 145
216 222 235 250 237 240 258 275 272 267 261 254 243 244 195 212 142 126 236 347 28 82 123 131 138 146 151 157 162 165 169 172 177 181 189 201 171 118 116 134 158 176 181 184 188 190 189 193 194 190 192 193 193 194 192 190 189 186 185 186 188 185 182 183 184 186 188 186 185 186 187 185 181 182 186 188 192 190 185 182 181 179 171 165 163 166 168 166 164 160 152 149 150 153 153 152 150
202 211 220 244 251 267 286 276 274 280 262 225 228 236 144 181 166 144 277 359 60 113 125 133 143 150 156 162 165 169 172 176 179 180 189 203 159 96 106 144 161 177 188 190 192 195 194 196 200 199 197 197 195 194 196 195 192 190 189 190 191 189 187 186 186 189 188 185 187 189 189 189 186 185 188 190 193 195 189 185 186 184 178 172 165 165 170 168 166 164 156 151 149 151 154 154 153
179 199 219 240 256 300 284 271 275 287 263 220 230 287 104 160 175 162 289 16 112 124 127 140 149 154 161 165 168 173 175 176 176 175 179 194 183 151 165 175 165 163 181 201 203 201 200 199 201 203 200 198 197 195 198 199 196 192 191 193 192 192 192 190 190 192 190 189 190 190 190 192 191 189 191 193 193 193 189 188 189 188 185 179 172 169 170 169 168 168 162 157 153 154 156 156 158
167 180 207 235 257 271 239 262 274 279 274 205 197 250 219 150 165 150 156 166 140 132 138 148 157 161 167 168 169 175 177 171 171 174 176 189 195 184 183 177 159 168 190 204 207 205 206 206 204 206 204 202 200 198 200 202 198 194 194 195 192 193 196 195 194 194 193 194 193 192 192 194 195 192 194 196 195 191 189 191 192 191 192 188 181 176 172 169 168 169 167 162 158 157 157 159 164
162 173 207 225 265 248 223 246 258 236 273 177 173 206 251 111 171 167 134 179 151 138 150 156 165 170 170 172 170 173 176 170 171 181 187 193 197 188 182 170 168 188 203 206 205 207 213 212 210 211 208 208 206 201 201 202 201 199 199 197 194 195 197 196 197 196 195 197 196 196 196 197 197 194 198 200 196 193 190 192 193 194 196 197 193 187 181 174 168 168 168 168 168 165 163 165 169
154 158 238 241 261 240 208 84 127 199 218 203 204 208 209 186 305 337 2 195 159 143 162 169 173 176 175 176 170 171 177 174 177 186 193 197 199 192 178 173 187 203 211 209 204 209 215 214 213 213 211 211 209 204 202 202 204 203 202 202 199 200 201 202 202 200 199 200 199 200 200 199 198 196 201 203 197 194 190 193 198 200 202 204 202 197 192 185 176 170 171 173 175 174 172 172 175
151 147 197 253 219 214 44 64 157 192 124 256 234 220 198 29 6 356 356 262 191 151 164 179 187 187 183 177 171 171 174 180 186 190 194 196 197 193 183 185 197 209 217 214 208 211 215 216 217 216 215 213 209 208 206 204 207 207 207 207 204 205 208 210 210 206 206 205 202 203 204 202 200 198 201 204 201 196 190 196 202 203 205 207 206 206 202 195 188 180 177 180 179 177 175 176 179
103 170 175 123 204 220 23 82 171 198 87 20 253 217 103 45 21 7 11 355 307 40 151 193 210 206 191 170 167 169 165 176 188 194 198 194 192 193 192 194 200 211 220 219 214 212 216 219 220 220 220 215 211 212 211 208 208 208 208 205 204 209 212 216 217 215 215 210 206 206 206 205 203 202 203 205 204 202 198 199 202 201 204 207 207 210 209 203 195 187 183 186 185 179 173 177 180
61 217 177 134 189 202 46 102 110 269 131 94 297 197 108 46 16 10 19 30 31 24 44 221 228 228 206 162 160 166 156 167 186 199 202 197 197 201 204 202 205 216 223 221 218 218 220 221 221 224 223 219 215 212 211 211 208 206 206 203 205 210 214 217 219 222 225 218 211 209 209 209 208 205 205 206 205 205 205 205 204 201 202 205 207 209 211 209 201 192 186 185 192 190 176 174 177
145 195 145 118 190 187 155 130 68 10 164 169 313 67 76 31 16 20 19 27 73 54 355 281 243 230 195 141 169 180 173 181 190 200 203 202 203 209 214 214 211 216 225 226 224 225 226 226 225 227 226 224 221 214 212 214 212 212 208 206 208 210 214 219 220 226 233 230 220 215 215 215 212 208 208 209 206 206 208 208 206 203 201 201 204 206 208 207 203 199 191 181 191 194 181 175 177
156 163 153 133 165 176 181 148 49 1 137 165 175 86 53 25 19 26 21 30 54 37 360 336 296 232 171 145 172 190 196 204 205 206 207 206 208 213 217 218 216 216 226 230 230 233 233 232 232 231 229 227 223 214 213 215 212 211 205 207 215 217 220 225 226 227 230 234 230 222 219 218 214 209 209 210 206 205 207 206 205 204 203 202 205 207 205 204 202 200 194 183 183 186 179 175 173
152 159 159 144 150 171 216 181 339 359 96 101 114 94 49 25 15 15 18 33 48 37 18 11 2 320 176 169 175 188 200 208 216 214 209 208 216 221 219 220 221 219 227 232 231 237 244 247 249 250 245 234 221 208 212 215 211 209 204 207 217 222 226 231 235 234 233 237 236 229 223 221 217 212 211 211 207 206 207 206 206 205 205 207 213 215 210 205 200 195 191 181 172 167 167 171 167
127 124 130 125 151 159 174 220 335 350 89 65 85 86 53 32 22 12 14 35 41 35 25 19 15 21 165 185 175 168 180 177 356 221 211 210 218 225 228 236 243 246 266 278 272 271 288 305 319 340 341 336 314 232 217 216 213 211 210 213 219 224 230 235 238 240 239 241 240 234 228 225 221 217 216 214 209 207 209 207 207 208 210 213 220 223 217 207 199 193 186 178 171 165 165 170 166
122 126 125 125 175 153 129 79 347 358 90 92 96 83 55 36 37 24 24 40 39 32 28 25 18 22 51 113 123 117 96 48 36 31 341 232 230 240 273 13 18 19 13 358 336 336 354 360 5 9 2 355 307 252 227 227 229 221 217 223 229 230 232 235 238 242 243 246 246 239 233 230 226 223 221 218 213 209 209 209 209 211 214 217 222 226 220 208 198 192 183 176 177 175 172 174 171
124 126 134 153 168 157 169 84 14 15 105 158 112 83 61 39 47 40 39 47 46 40 39 38 31 31 42 51 57 64 52 36 25 24 21 10 13 28 47 53 46 36 26 4 337 351 359 334 316 304 290 275 251 234 218 219 226 223 217 223 232 234 236 239 241 244 249 251 249 246 239 232 227 226 223 221 218 213 210 209 211 213 216 219 221 223 220 208 198 194 188 180 176 177 176 177 181
122 140 159 160 144 178 179 117 50 24 72 154 122 92 66 35 45 48 48 54 53 49 50 49 46 43 45 46 43 38 33 23 17 21 22 25 46 50 55 69 62 35 24 17 18 23 309 266 265 262 257 249 239 235 226 218 220 218 214 217 227 235 242 247 248 247 251 254 252 250 246 236 229 225 220 218 217 214 211 212 216 217 220 223 221 217 213 205 200 197 192 187 179 175 175 179 189
152 176 177 164 171 204 167 118 128 61 51 151 127 98 61 18 26 40 44 56 55 50 53 50 47 49 49 49 47 44 39 29 26 27 28 32 49 51 44 61 58 34 26 21 12 360 321 274 270 270 264 251 229 236 240 225 223 225 224 220 222 231 240 248 251 249 249 253 255 253 250 243 235 229 223 219 217 213 212 214 220 223 224 225 222 218 212 202 203 201 195 194 190 184 179 179 188
173 217 204 185 180 195 130 102 141 124 137 204 159 107 87 13 23 34 28 51 57 51 53 48 44 49 52 53 50 50 48 45 42 40 42 45 51 54 50 59 69 50 24 359 340 333 321 292 281 279 272 257 229 226 238 227 224 229 235 233 226 225 232 238 243 249 249 250 255 258 259 254 243 237 233 225 222 218 216 215 220 226 229 227 222 219 215 209 210 207 198 197 197 193 183 175 184
175 206 192 170 154 176 169 143 158 155 161 167 341 182 138 46 25 27 19 51 57 54 55 50 46 49 52 57 55 53 51 48 48 46 48 48 48 50 45 42 45 40 24 358 338 335 334 323 307 295 279 261 234 224 237 232 225 229 238 244 241 231 233 239 241 249 254 256 258 259 262 260 254 254 253 243 235 228 226 222 221 227 232 232 228 220 216 217 220 214 201 200 200 197 190 181 184
167 181 164 156 159 187 183 173 200 206 116 94 24 227 130 113 19 9 2 54 58 53 56 54 51 47 46 52 50 50 48 42 43 42 42 42 42 45 42 37 34 29 23 16 8 358 355 353 345 336 321 301 285 264 229 203 215 233 247 253 254 244 243 248 246 245 248 252 255 254 255 259 259 263 261 252 242 232 230 229 224 227 233 234 230 225 221 220 222 218 209 208 203 197 197 191 187
184 156 154 159 168 179 167 181 201 118 202 178 126 345 129 112 359 358 356 61 64 55 55 55 48 42 43 47 45 43 43 41 41 38 36 35 35 39 40 39 36 32 27 22 17 12 7 4 356 353 355 353 346 327 288 242 227 238 260 260 260 254 252 253 243 238 239 244 253 251 246 250 251 253 253 244 237 233 233 233 231 229 231 230 227 227 225 222 221 218 212 211 205 200 202 198 192
139 126 117 105 88 94 122 183 181 121 228 197 136 298 155 110 49 335 55 78 81 66 58 56 48 44 45 45 43 40 38 38 36 36 36 32 31 33 34 35 33 30 29 25 23 19 14 13 4 354 357 4 6 357 336 293 255 251 260 260 262 263 264 260 246 241 244 248 261 261 251 259 256 250 252 251 247 243 239 238 238 236 232 229 229 229 225 223 223 214 209 210 207 204 205 203 200
128 125 108 99 84 63 95 82 95 186 219 185 33 304 241 132 183 206 134 102 108 97 71 58 49 49 48 45 42 36 33 31 28 33 32 26 27 28 28 30 27 25 27 26 24 23 23 24 19 13 8 6 4 360 354 343 307 272 263 258 259 261 261 258 251 248 245 244 258 260 259 275 269 253 251 256 254 249 242 239 239 238 235 230 231 230 223 220 216 207 209 212 207 207 208 207 206
138 132 128 132 109 112 145 96 196 210 206 126 15 304 313 132 170 162 148 133 115 99 79 65 55 52 50 48 42 35 31 27 24 28 25 21 22 22 20 21 20 20 23 22 20 19 20 23 26 28 25 19 13 2 352 346 335 314 291 272 262 257 250 245 242 242 241 242 245 241 242 261 263 256 251 250 251 247 242 241 239 235 233 230 230 230 225 220 209 205 215 218 210 212 213 207 207
170 149 156 164 155 167 179 177 196 205 194 59 314 294 49 83 120 136 137 124 100 85 75 71 64 58 54 50 43 36 30 27 26 25 21 20 20 17 13 14 16 17 18 18 18 17 16 17 21 26 24 20 15 5 356 347 335 326 316 297 277 265 254 247 249 248 242 239 237 232 235 242 242 247 248 247 247 243 238 239 240 235 231 231 231 230 228 222 210 203 210 216 217 216 212 210 212
180 168 174 177 167 167 173 172 178 184 143 49 316 291 116 110 129 129 114 98 92 86 79 73 67 62 59 55 47 39 32 28 28 24 21 22 18 14 12 11 13 13 13 15 15 15 15 13 16 18 14 9 6 1 354 346 333 320 309 297 283 269 259 258 262 260 247 237 241 244 247 244 234 233 240 246 248 242 236 233 235 235 233 235 238 236 230 225 221 215 212 217 221 218 213 216 220
173 167 180 179 172 168 161 160 165 153 122 69 345 324 137 139 135 124 113 100 91 89 85 76 68 60 57 55 45 38 33 27 25 22 20 20 15 13 12 11 11 10 10 12 11 12 12 10 14 16 10 4 1 356 348 340 330 313 299 291 283 266 255 257 261 260 251 243 246 248 249 248 243 237 240 245 244 240 235 232 231 232 233 237 243 242 234 228 229 228 222 218 215 216 218 217 216
172 149 159 181 175 134 107 99 101 113 115 69 18 38 78 108 124 123 115 105 99 97 89 77 67 60 52 48 40 32 28 25 23 21 17 16 13 11 12 11 8 6 7 8 7 9 8 7 11 12 8 4 359 353 349 344 337 326 316 304 293 282 269 263 261 260 252 244 241 241 245 248 248 253 254 247 242 238 235 233 231 230 232 236 239 241 236 227 227 227 219 214 214 216 220 221 219
143 175 179 175 112 109 117 112 45 79 144 108 52 127 121 120 140 140 127 115 114 102 83 75 69 65 58 51 44 33 27 25 23 20 17 14 12 10 10 8 4 2 2 3 2 4 5 5 5 4 4 3 358 352 349 347 346 340 334 323 303 288 277 269 268 267 260 252 244 241 249 255 255 261 262 249 241 237 231 229 231 231 233 233 233 238 236 227 223 223 218 217 221 219 214 220 226
142 177 169 121 63 86 112 126 108 136 140 117 228 159 153 164 164 152 143 126 113 92 78 78 71 66 62 55 48 38 34 31 24 22 20 16 13 9 6 3 1 359 357 357 359 2 4 4 3 1 0 358 354 350 347 346 348 345 340 333 316 288 274 270 270 271 267 260 250 247 256 261 258 257 258 254 248 237 226 223 228 236 238 233 229 234 235 228 222 219 219 222 224 222 215 218 225
125 157 150 133 164 168 150 138 153 152 120 136 191 187 182 184 175 165 159 135 118 105 82 74 67 61 59 52 44 37 33 29 24 22 20 17 14 9 6 5 3 2 2 1 2 5 6 6 6 3 0 356 350 347 345 346 349 348 343 335 323 301 283 279 275 270 267 262 255 255 262 264 260 252 255 259 254 240 230 221 220 233 240 234 227 228 231 230 224 217 215 218 218 221 221 219 217
66 132 141 171 187 160 157 123 145 150 133 152 164 188 208 188 184 192 165 138 132 126 101 83 74 67 59 50 43 36 32 28 22 21 19 15 11 8 8 9 7 5 6 6 7 10 9 8 7 3 360 356 351 349 348 347 349 350 344 337 330 317 297 287 283 275 269 265 259 257 261 265 262 250 249 256 252 241 236 223 212 222 233 232 227 226 229 228 223 217 213 212 211 215 219 218 212
141 156 152 132 92 109 128 86 46 132 143 151 156 184 206 169 93 155 134 127 132 126 116 105 88 79 69 56 50 43 37 33 25 21 17 10 5 2 3 4 2 359 1 2 2 3 4 3 2 360 359 357 355 353 351 348 351 350 343 335 332 328 317 304 293 280 269 266 262 254 253 259 256 244 246 249 246 240 237 228 215 213 221 224 221 221 224 223 219 217 214 211 210 210 213 216 214
154 165 166 146 124 138 151 146 87 80 129 151 156 179 179 114 67 104 110 114 118 114 116 110 92 86 78 62 59 53 45 39 31 25 20 12 5 0 358 358 357 358 1 2 1 1 1 1 358 355 357 360 360 358 353 347 347 348 344 337 333 331 328 321 308 287 271 269 267 259 254 254 248 242 244 245 241 238 236 230 221 213 212 215 214 214 219 220 216 212 210 211 213 211 206 213 215